TimeMST,TemperatureF,Dew PointF,Humidity,Sea Level PressureIn,VisibilityMPH,Wind Direction,Wind SpeedMPH,Gust SpeedMPH,PrecipitationIn,Events,Conditions,WindDirDegrees,DateUTC
12:53 AM,26.1,21.9,84,30.21,10.0,ENE,3.5,-,N/A,,Clear,70,2013-03-01 07:53:00
1:53 AM,25.0,21.0,85,30.22,10.0,Calm,Calm,-,N/A,,Clear,0,2013-03-01 08:53:00
2:53 AM,25.0,21.0,85,30.18,10.0,ENE,4.6,-,N/A,,Clear,60,2013-03-01 09:53:00
3:53 AM,33.1,27.0,78,30.15,10.0,SW,11.5,-,N/A,,Clear,220,2013-03-01 10:53:00
4:53 AM,36.0,28.9,76,30.15,10.0,SW,12.7,-,N/A,,Partly Cloudy,220,2013-03-01 11:53:00
5:53 AM,37.9,28.9,70,30.14,10.0,SSW,16.1,-,N/A,,Clear,210,2013-03-01 12:53:00
6:53 AM,39.9,30.0,68,30.14,10.0,SW,16.1,-,N/A,,Clear,220,2013-03-01 13:53:00
7:53 AM,41.0,30.9,67,30.14,10.0,SW,17.3,-,N/A,,Clear,230,2013-03-01 14:53:00
8:53 AM,42.1,32.0,67,30.14,10.0,SW,16.1,-,N/A,,Clear,220,2013-03-01 15:53:00
9:53 AM,45.0,34.0,65,30.13,10.0,SW,17.3,26.5,N/A,,Clear,220,2013-03-01 16:53:00
10:53 AM,48.0,35.1,61,30.12,10.0,SW,19.6,-,N/A,,Clear,230,2013-03-01 17:53:00
11:53 AM,51.1,37.0,59,30.12,10.0,SW,17.3,24.2,N/A,,Clear,230,2013-03-01 18:53:00
12:53 PM,54.0,37.9,55,30.10,10.0,WSW,17.3,-,N/A,,Clear,240,2013-03-01 19:53:00
1:53 PM,55.0,36.0,49,30.09,10.0,West,21.9,-,N/A,,Clear,260,2013-03-01 20:53:00
2:53 PM,50.0,37.9,63,30.11,10.0,WSW,12.7,-,N/A,,Clear,240,2013-03-01 21:53:00
3:53 PM,48.9,36.0,61,30.10,10.0,SW,12.7,-,N/A,,Clear,230,2013-03-01 22:53:00
4:53 PM,48.0,36.0,63,30.11,10.0,WSW,15.0,-,N/A,,Clear,240,2013-03-01 23:53:00
5:53 PM,46.0,34.0,63,30.12,10.0,WSW,10.4,-,N/A,,Clear,250,2013-03-02 00:53:00
6:53 PM,42.8,33.8,70,30.06,10.0,SW,15.0,-,N/A,,Clear,230,2013-03-02 01:53:00
7:53 PM,39.0,32.0,76,30.14,10.0,WSW,11.5,-,N/A,,Clear,240,2013-03-02 02:53:00
8:53 PM,39.0,32.0,76,30.14,10.0,SW,13.8,-,N/A,,Clear,230,2013-03-02 03:53:00
9:53 PM,37.9,32.0,79,30.14,10.0,SW,13.8,-,N/A,,Clear,220,2013-03-02 04:53:00
10:53 PM,37.9,32.0,79,30.14,10.0,WSW,10.4,-,N/A,,Clear,240,2013-03-02 05:53:00
11:53 PM,42.1,32.0,67,30.12,10.0,SW,16.1,-,N/A,,Clear,220,2013-03-02 06:53:00